STARLINK-2645, 48444

Orbit data source: Space-Track

STARLINK-2645, 48444 is a payload satellite owned by SpaceX/Seattle (US) in LEO that was launched on Sun, 09 May 2021 UTC via an FALCON 9 launch vehicle from the Air Force Eastern Test Range (AFETR). Payload-class satellites include a variety of spacecraft equipped with specific instruments for various scientific and technological missions. These include communications satellites like Starlink; space stations such as the ISS; scientific satellites like the Hubble; Earth observation satellites from companies like Planet Labs, Umbra, and HawkEye 360; GPS; miniature CubeSats for education and research; and military/defense satellites.

Loading next visibility...
Identifier
48444, 2021-040S
Orbit
LEO
Country
Flag of USUS
Related business
Manufacturer
SpaceX/Seattle
Mission
Operational Commercial Communications
Bus & Motor
STARLINK, Unknown motor
Mass
260 kg wet, ~248 kg dry
Launch date (UTC)
2021-05-09 (5 years ago)
Launch vehicle
FALCON 9
Launch site
Air Force Eastern Test Range (AFETR)
Object type
Payload
Rocket body
Debris
Shape & HBR
Box + 1 Pan, 10.1 m
Radar Cross Section
13.562 m², Large (>1 m²)

Expand to show TLE details & history
Last TLE update: 2 days ago

TLE from 2 days ago
0 STARLINK-2645
1 48444U 21040S   26171.38557958  .00002554  00000-0  94037-4 0  9991
2 48444  53.1610  60.4167 0001200 101.2311 258.8825 15.31705862282411
Epoch: 2026-06-20T09:15Z
TLE epoch observation values (Epoch: 2026-06-20T09:15:14.075Z)
Latitude
-0.00006°
Longitude
13.00705°
Altitude
471.781 km
Speed
7.631 km/s
True Right ascension
04h 01m 39s
True Declination
0° 00' 00"
Sunlit
Object was in daylight at epoch
Visualization orbit readout
Latitude
Unknown
Longitude
Unknown
Altitude
Unknown
Speed
Unknown
Apparent Right ascension
Unknown
Apparent Declination
Unknown
Sunlit
N/A
Visualization observer readout
Local Sidereal Time
21:30:57
Azimuth
Unknown
Elevation
Unknown
Doppler factor
Unknown
Orbital elements
Apogee altitude
471.801 km
Perigee altitude
470.157 km
Semi-major axis
6,849.116 km
Eccentricity
0.00012
Inclination
53.161°
RAAN
60.4167°
Arg. of periapsis
101.2311°
True anomaly
258.86901°
Mean anomaly
258.8825°
Eccentric anomaly
258.87575°
Mean motion
3.82905 °/min
Orbital period
94.02 mins
BSTAR
0.000094037
Loading maneuver chart data...
Computing Atmospheric mass density...

Documentation

Showing up to 5 results
|